Time,TemperatureF,DewpointF,PressureIn,WindDirection,WindDirectionDegrees,WindSpeedMPH,WindSpeedGustMPH,Humidity,HourlyPrecipIn,Conditions,Clouds,dailyrainin,SoftwareType,DateUTC
2013-04-08 00:01:00,48.0,27.0,29.89,South,181,3.0,11.0,44,0.00,,,0.00,,2013-04-08 07:01:00,
2013-04-08 00:11:00,50.0,28.0,29.88,SW,234,6.0,18.0,42,0.00,,,0.00,,2013-04-08 07:11:00,
2013-04-08 00:21:00,50.0,28.0,29.88,SW,234,6.0,18.0,42,0.00,,,0.00,,2013-04-08 07:21:00,
2013-04-08 00:32:00,50.0,28.0,29.88,SW,234,6.0,18.0,42,0.00,,,0.00,,2013-04-08 07:32:00,
2013-04-08 00:42:00,50.0,28.0,29.88,SW,234,6.0,18.0,42,0.00,,,0.00,,2013-04-08 07:42:00,
2013-04-08 00:52:00,50.0,28.0,29.85,SW,235,8.0,17.0,42,0.00,,,0.00,,2013-04-08 07:52:00,
2013-04-08 01:02:00,50.0,28.0,29.85,SW,227,6.0,14.0,42,0.00,,,0.00,,2013-04-08 08:02:00,
2013-04-08 01:12:00,50.0,28.0,29.85,SW,227,6.0,14.0,42,0.00,,,0.00,,2013-04-08 08:12:00,
2013-04-08 01:22:00,50.0,28.0,29.85,SW,227,6.0,14.0,42,0.00,,,0.00,,2013-04-08 08:22:00,
2013-04-08 01:31:00,50.0,28.0,29.83,WSW,250,9.0,22.0,42,0.00,,,0.00,,2013-04-08 08:31:00,
2013-04-08 01:42:00,50.0,29.0,29.81,WSW,250,12.0,27.0,44,0.00,,,0.00,,2013-04-08 08:42:00,
2013-04-08 01:52:00,50.0,29.0,29.81,WSW,250,12.0,27.0,44,0.00,,,0.00,,2013-04-08 08:52:00,
2013-04-08 02:02:00,50.0,29.0,29.80,SW,232,10.0,20.0,44,0.00,,,0.00,,2013-04-08 09:02:00,
2013-04-08 02:11:00,50.0,29.0,29.80,SW,232,10.0,20.0,44,0.00,,,0.00,,2013-04-08 09:11:00,
2013-04-08 02:22:00,50.0,29.0,29.80,SW,232,10.0,20.0,44,0.00,,,0.00,,2013-04-08 09:22:00,
2013-04-08 02:32:00,49.0,30.0,29.78,WSW,247,9.0,20.0,48,0.00,,,0.00,,2013-04-08 09:32:00,
2013-04-08 02:42:00,48.0,30.0,29.76,WSW,250,9.0,20.0,49,0.00,,,0.00,,2013-04-08 09:42:00,
2013-04-08 02:53:00,48.0,30.0,29.76,WSW,250,9.0,20.0,49,0.00,,,0.00,,2013-04-08 09:53:00,
2013-04-08 03:03:00,48.0,31.0,29.75,WSW,250,9.0,19.0,51,0.00,,,0.00,,2013-04-08 10:03:00,
2013-04-08 03:12:00,48.0,31.0,29.75,WSW,250,9.0,19.0,51,0.00,,,0.00,,2013-04-08 10:12:00,
2013-04-08 03:22:00,48.0,31.0,29.74,WSW,246,11.0,22.0,51,0.00,,,0.00,,2013-04-08 10:22:00,
2013-04-08 03:32:00,48.0,31.0,29.74,WSW,243,12.0,24.0,51,0.00,,,0.00,,2013-04-08 10:32:00,
2013-04-08 03:41:00,48.0,31.0,29.74,WSW,243,12.0,24.0,51,0.00,,,0.00,,2013-04-08 10:41:00,
2013-04-08 03:52:00,48.0,31.0,29.73,WSW,250,11.0,21.0,52,0.00,,,0.00,,2013-04-08 10:52:00,
2013-04-08 04:02:00,48.0,31.0,29.72,WSW,250,10.0,21.0,52,0.00,,,0.00,,2013-04-08 11:02:00,
2013-04-08 04:11:00,48.0,31.0,29.72,WSW,253,11.0,22.0,52,0.00,,,0.00,,2013-04-08 11:11:00,
2013-04-08 04:22:00,48.0,31.0,29.72,WSW,253,11.0,22.0,52,0.00,,,0.00,,2013-04-08 11:22:00,
2013-04-08 04:32:00,48.0,32.0,29.71,WSW,255,10.0,17.0,53,0.00,,,0.00,,2013-04-08 11:32:00,
2013-04-08 04:42:00,48.0,32.0,29.71,WSW,255,10.0,17.0,53,0.00,,,0.00,,2013-04-08 11:42:00,
2013-04-08 04:52:00,48.0,32.0,29.70,WSW,242,7.0,17.0,54,0.00,,,0.00,,2013-04-08 11:52:00,
2013-04-08 05:01:00,48.0,32.0,29.70,WSW,242,7.0,17.0,54,0.00,,,0.00,,2013-04-08 12:01:00,
2013-04-08 05:11:00,48.0,32.0,29.70,WSW,242,7.0,17.0,54,0.00,,,0.00,,2013-04-08 12:11:00,
2013-04-08 05:21:00,47.0,33.0,29.67,WSW,252,9.0,18.0,59,0.00,,,0.00,,2013-04-08 12:21:00,
2013-04-08 05:33:00,47.0,34.0,29.69,SW,227,8.0,16.0,61,0.00,,,0.00,,2013-04-08 12:33:00,
2013-04-08 05:42:00,47.0,34.0,29.69,SW,227,8.0,16.0,61,0.00,,,0.00,,2013-04-08 12:42:00,
2013-04-08 06:02:00,47.0,35.0,29.68,SW,234,7.0,16.0,62,0.00,,,0.00,,2013-04-08 13:02:00,
2013-04-08 06:11:00,47.0,35.0,29.68,SW,234,7.0,16.0,62,0.00,,,0.00,,2013-04-08 13:11:00,
2013-04-08 06:21:00,46.0,35.0,29.67,WSW,241,9.0,19.0,65,0.00,,,0.00,,2013-04-08 13:21:00,
2013-04-08 06:31:00,46.0,35.0,29.67,SW,233,9.0,18.0,66,0.00,,,0.00,,2013-04-08 13:31:00,
2013-04-08 06:42:00,46.0,35.0,29.67,SW,233,9.0,18.0,66,0.00,,,0.00,,2013-04-08 13:42:00,
2013-04-08 06:52:00,46.0,35.0,29.67,SW,230,8.0,22.0,66,0.00,,,0.00,,2013-04-08 13:52:00,
2013-04-08 07:02:00,46.0,34.0,29.67,SW,225,8.0,24.0,62,0.00,,,0.00,,2013-04-08 14:02:00,
2013-04-08 07:11:00,46.0,33.0,29.66,SW,214,12.0,24.0,60,0.00,,,0.00,,2013-04-08 14:11:00,
2013-04-08 07:21:00,46.0,33.0,29.66,SW,214,12.0,24.0,60,0.00,,,0.00,,2013-04-08 14:21:00,
2013-04-08 07:32:00,47.0,33.0,29.64,SW,225,9.0,21.0,57,0.00,,,0.00,,2013-04-08 14:32:00,
2013-04-08 07:41:00,47.0,33.0,29.64,SW,225,9.0,21.0,57,0.00,,,0.00,,2013-04-08 14:41:00,
2013-04-08 07:52:00,47.0,33.0,29.64,SW,225,9.0,21.0,57,0.00,,,0.00,,2013-04-08 14:52:00,
2013-04-08 08:02:00,48.0,32.0,29.62,SW,218,13.0,25.0,54,0.00,,,0.00,,2013-04-08 15:02:00,
2013-04-08 08:11:00,49.0,32.0,29.62,SW,223,12.0,28.0,52,0.00,,,0.00,,2013-04-08 15:11:00,
2013-04-08 08:22:00,49.0,32.0,29.62,SW,223,12.0,28.0,52,0.00,,,0.00,,2013-04-08 15:22:00,
2013-04-08 08:33:00,49.0,33.0,29.60,SW,220,14.0,28.0,53,0.00,,,0.00,,2013-04-08 15:33:00,
2013-04-08 08:42:00,49.0,33.0,29.60,SW,220,14.0,28.0,53,0.00,,,0.00,,2013-04-08 15:42:00,
2013-04-08 08:52:00,48.0,33.0,29.58,SSW,205,12.0,27.0,56,0.00,,,0.00,,2013-04-08 15:52:00,
2013-04-08 09:02:00,48.0,33.0,29.58,SSW,205,12.0,27.0,56,0.00,,,0.00,,2013-04-08 16:02:00,
2013-04-08 09:12:00,48.0,33.0,29.58,SSW,205,12.0,27.0,56,0.00,,,0.00,,2013-04-08 16:12:00,
2013-04-08 09:22:00,48.0,33.0,29.58,SSW,205,12.0,27.0,56,0.00,,,0.00,,2013-04-08 16:22:00,
2013-04-08 09:32:00,48.0,33.0,29.58,SSW,205,12.0,27.0,56,0.00,,,0.00,,2013-04-08 16:32:00,
2013-04-08 09:42:00,48.0,34.0,29.56,SSW,206,12.0,31.0,59,0.00,,,0.00,,2013-04-08 16:42:00,
2013-04-08 09:53:00,47.0,33.0,29.56,SSW,204,12.0,27.0,58,0.00,,,0.00,,2013-04-08 16:53:00,
2013-04-08 10:02:00,46.0,33.0,29.55,South,191,10.0,28.0,60,0.00,,,0.00,,2013-04-08 17:02:00,
2013-04-08 10:12:00,47.0,33.0,29.54,SSW,207,11.0,27.0,59,0.00,,,0.00,,2013-04-08 17:12:00,
2013-04-08 10:22:00,47.0,33.0,29.54,SSW,207,11.0,27.0,59,0.00,,,0.00,,2013-04-08 17:22:00,
2013-04-08 10:32:00,47.0,33.0,29.54,SSW,207,11.0,27.0,59,0.00,,,0.00,,2013-04-08 17:32:00,
2013-04-08 10:42:00,47.0,33.0,29.54,SSW,207,11.0,27.0,59,0.00,,,0.00,,2013-04-08 17:42:00,
2013-04-08 10:52:00,49.0,33.0,29.52,SSW,205,16.0,32.0,54,0.00,,,0.00,,2013-04-08 17:52:00,
2013-04-08 11:02:00,49.0,34.0,29.50,SSW,210,10.0,29.0,55,0.00,,,0.00,,2013-04-08 18:02:00,
2013-04-08 11:12:00,49.0,34.0,29.50,SW,218,17.0,36.0,55,0.00,,,0.00,,2013-04-08 18:12:00,
2013-04-08 11:22:00,49.0,34.0,29.50,SW,218,17.0,36.0,55,0.00,,,0.00,,2013-04-08 18:22:00,
2013-04-08 11:32:00,49.0,34.0,29.50,SW,218,17.0,36.0,55,0.00,,,0.00,,2013-04-08 18:32:00,
2013-04-08 11:42:00,48.0,33.0,29.48,SSW,206,16.0,40.0,56,0.00,,,0.00,,2013-04-08 18:42:00,
2013-04-08 11:52:00,48.0,33.0,29.48,SSW,206,16.0,40.0,56,0.00,,,0.00,,2013-04-08 18:52:00,
2013-04-08 12:02:00,48.0,33.0,29.48,SSW,206,16.0,40.0,56,0.00,,,0.00,,2013-04-08 19:02:00,
2013-04-08 12:12:00,48.0,33.0,29.48,SSW,206,16.0,40.0,56,0.00,,,0.00,,2013-04-08 19:12:00,
2013-04-08 12:22:00,48.0,33.0,29.48,SSW,206,16.0,40.0,56,0.00,,,0.00,,2013-04-08 19:22:00,
2013-04-08 12:33:00,44.0,33.0,29.45,SSW,212,12.0,33.0,65,0.01,,,0.01,,2013-04-08 19:33:00,
2013-04-08 12:43:00,44.0,34.0,29.45,SSW,212,17.0,34.0,68,0.02,,,0.02,,2013-04-08 19:43:00,
2013-04-08 12:52:00,44.0,34.0,29.45,SSW,212,17.0,34.0,68,0.02,,,0.02,,2013-04-08 19:52:00,
2013-04-08 13:02:00,44.0,34.0,29.45,SSW,212,17.0,34.0,68,0.02,,,0.02,,2013-04-08 20:02:00,
2013-04-08 13:11:00,43.0,35.0,29.45,SSW,200,12.0,25.0,72,0.02,,,0.03,,2013-04-08 20:11:00,
2013-04-08 13:22:00,43.0,35.0,29.45,SSW,200,12.0,25.0,72,0.02,,,0.03,,2013-04-08 20:22:00,
2013-04-08 13:32:00,45.0,35.0,29.45,SSW,202,10.0,28.0,68,0.02,,,0.03,,2013-04-08 20:32:00,
2013-04-08 13:42:00,45.0,35.0,29.45,SSW,202,10.0,28.0,68,0.02,,,0.03,,2013-04-08 20:42:00,
2013-04-08 13:52:00,43.0,34.0,29.47,SW,219,12.0,32.0,71,0.03,,,0.05,,2013-04-08 20:52:00,
2013-04-08 14:01:00,41.0,33.0,29.47,WSW,252,18.0,32.0,73,0.02,,,0.05,,2013-04-08 21:01:00,
2013-04-08 14:11:00,41.0,33.0,29.47,WSW,252,18.0,32.0,73,0.02,,,0.05,,2013-04-08 21:11:00,
2013-04-08 14:22:00,41.0,33.0,29.47,WSW,252,18.0,32.0,73,0.02,,,0.05,,2013-04-08 21:22:00,
2013-04-08 14:32:00,37.0,33.0,29.50,WSW,258,10.0,24.0,84,0.03,,,0.06,,2013-04-08 21:32:00,
2013-04-08 14:42:00,37.0,33.0,29.50,WSW,258,10.0,24.0,84,0.03,,,0.06,,2013-04-08 21:42:00,
2013-04-08 14:53:00,36.0,32.0,29.50,WSW,255,8.0,24.0,86,0.03,,,0.06,,2013-04-08 21:53:00,
2013-04-08 15:02:00,36.0,32.0,29.50,WSW,245,13.0,25.0,84,0.02,,,0.07,,2013-04-08 22:02:00,
2013-04-08 15:12:00,36.0,32.0,29.50,WSW,245,13.0,25.0,84,0.02,,,0.07,,2013-04-08 22:12:00,
2013-04-08 15:22:00,36.0,32.0,29.50,WSW,245,13.0,25.0,84,0.02,,,0.07,,2013-04-08 22:22:00,
2013-04-08 15:32:00,36.0,32.0,29.50,WSW,245,13.0,25.0,84,0.02,,,0.07,,2013-04-08 22:32:00,
2013-04-08 15:42:00,37.0,30.0,29.49,West,271,15.0,28.0,76,0.01,,,0.07,,2013-04-08 22:42:00,
2013-04-08 15:53:00,37.0,30.0,29.51,WSW,242,11.0,30.0,76,0.00,,,0.07,,2013-04-08 22:53:00,
2013-04-08 16:02:00,35.0,29.0,29.50,WNW,289,6.0,28.0,80,0.00,,,0.07,,2013-04-08 23:02:00,
2013-04-08 16:11:00,35.0,29.0,29.50,WNW,289,6.0,28.0,80,0.00,,,0.07,,2013-04-08 23:11:00,
2013-04-08 16:22:00,35.0,29.0,29.50,WNW,289,6.0,28.0,80,0.00,,,0.07,,2013-04-08 23:22:00,
2013-04-08 16:32:00,37.0,29.0,29.52,WSW,237,6.0,15.0,73,0.00,,,0.07,,2013-04-08 23:32:00,
2013-04-08 16:41:00,37.0,29.0,29.52,WSW,237,6.0,15.0,73,0.00,,,0.07,,2013-04-08 23:41:00,
2013-04-08 16:52:00,37.0,29.0,29.52,WSW,237,6.0,15.0,73,0.00,,,0.07,,2013-04-08 23:52:00,
2013-04-08 17:01:00,37.0,28.0,29.54,SSW,213,8.0,17.0,70,0.00,,,0.07,,2013-04-09 00:01:00,
2013-04-08 17:12:00,37.0,28.0,29.54,SSW,213,8.0,17.0,70,0.00,,,0.07,,2013-04-09 00:12:00,
2013-04-08 17:22:00,39.0,29.0,29.50,WSW,254,7.0,15.0,68,0.00,,,0.07,,2013-04-09 00:22:00,
2013-04-08 17:32:00,40.0,27.0,29.52,WSW,239,6.0,13.0,59,0.00,,,0.07,,2013-04-09 00:32:00,
2013-04-08 17:42:00,40.0,27.0,29.52,SW,223,4.0,12.0,59,0.00,,,0.07,,2013-04-09 00:42:00,
2013-04-08 17:52:00,40.0,27.0,29.52,SW,223,4.0,12.0,59,0.00,,,0.07,,2013-04-09 00:52:00,
2013-04-08 18:02:00,40.0,26.0,29.53,SW,214,1.0,10.0,57,0.00,,,0.07,,2013-04-09 01:02:00,
2013-04-08 18:12:00,40.0,26.0,29.53,SW,214,1.0,10.0,57,0.00,,,0.07,,2013-04-09 01:12:00,
2013-04-08 18:22:00,40.0,26.0,29.53,SW,214,1.0,10.0,57,0.00,,,0.07,,2013-04-09 01:22:00,
2013-04-08 18:32:00,38.0,28.0,29.54,SSE,164,1.0,6.0,66,0.00,,,0.07,,2013-04-09 01:32:00,
2013-04-08 18:41:00,39.0,27.0,29.53,SW,218,1.0,7.0,62,0.00,,,0.07,,2013-04-09 01:41:00,
2013-04-08 18:52:00,39.0,27.0,29.53,SW,218,1.0,7.0,62,0.00,,,0.07,,2013-04-09 01:52:00,
2013-04-08 19:02:00,38.0,27.0,29.54,North,0,0.0,6.0,63,0.00,,,0.07,,2013-04-09 02:02:00,
2013-04-08 19:12:00,38.0,27.0,29.54,North,0,0.0,6.0,63,0.00,,,0.07,,2013-04-09 02:12:00,
2013-04-08 19:22:00,38.0,25.0,29.54,North,0,0.0,5.0,60,0.00,,,0.07,,2013-04-09 02:22:00,
2013-04-08 19:32:00,38.0,25.0,29.54,North,0,0.0,4.0,60,0.00,,,0.07,,2013-04-09 02:32:00,
2013-04-08 19:42:00,37.0,25.0,29.55,North,0,0.0,3.0,61,0.00,,,0.07,,2013-04-09 02:42:00,
2013-04-08 19:52:00,37.0,25.0,29.55,North,0,0.0,3.0,61,0.00,,,0.07,,2013-04-09 02:52:00,
2013-04-08 20:01:00,37.0,25.0,29.55,North,0,0.0,3.0,61,0.00,,,0.07,,2013-04-09 03:01:00,
2013-04-08 20:11:00,37.0,25.0,29.55,North,0,0.0,3.0,61,0.00,,,0.07,,2013-04-09 03:11:00,
2013-04-08 20:21:00,37.0,26.0,29.55,SW,229,2.0,5.0,63,0.00,,,0.07,,2013-04-09 03:21:00,
2013-04-08 20:32:00,38.0,26.0,29.52,WSW,242,10.0,19.0,61,0.00,,,0.07,,2013-04-09 03:32:00,
2013-04-08 20:43:00,38.0,26.0,29.52,WSW,242,10.0,19.0,61,0.00,,,0.07,,2013-04-09 03:43:00,
2013-04-08 20:53:00,39.0,24.0,29.48,WSW,257,13.0,26.0,55,0.00,,,0.07,,2013-04-09 03:53:00,
2013-04-08 21:02:00,39.0,25.0,29.47,WSW,240,8.0,20.0,56,0.00,,,0.07,,2013-04-09 04:02:00,
2013-04-08 21:12:00,39.0,25.0,29.47,WSW,240,8.0,20.0,56,0.00,,,0.07,,2013-04-09 04:12:00,
2013-04-08 21:22:00,38.0,25.0,29.49,SSW,212,8.0,22.0,60,0.00,,,0.07,,2013-04-09 04:22:00,
2013-04-08 21:32:00,38.0,26.0,29.49,SW,217,8.0,22.0,61,0.00,,,0.07,,2013-04-09 04:32:00,
2013-04-08 21:42:00,38.0,26.0,29.49,SW,217,8.0,22.0,61,0.00,,,0.07,,2013-04-09 04:42:00,
2013-04-08 21:53:00,38.0,26.0,29.49,SW,217,8.0,22.0,61,0.00,,,0.07,,2013-04-09 04:53:00,
2013-04-08 22:02:00,38.0,25.0,29.49,SW,224,4.0,19.0,59,0.00,,,0.07,,2013-04-09 05:02:00,
2013-04-08 22:12:00,39.0,23.0,29.52,West,275,8.0,16.0,52,0.00,,,0.07,,2013-04-09 05:12:00,
2013-04-08 22:22:00,39.0,23.0,29.52,West,275,8.0,16.0,52,0.00,,,0.07,,2013-04-09 05:22:00,
2013-04-08 22:32:00,36.0,27.0,29.54,NNE,24,11.0,22.0,69,0.00,,,0.07,,2013-04-09 05:32:00,
2013-04-08 22:42:00,35.0,27.0,29.53,NNE,15,11.0,19.0,73,0.00,,,0.07,,2013-04-09 05:42:00,
2013-04-08 22:52:00,35.0,27.0,29.53,NNE,15,11.0,19.0,73,0.00,,,0.07,,2013-04-09 05:52:00,
2013-04-08 23:02:00,35.0,28.0,29.53,North,352,8.0,15.0,76,0.00,,,0.07,,2013-04-09 06:02:00,
2013-04-08 23:12:00,35.0,29.0,29.53,North,8,8.0,15.0,77,0.00,,,0.07,,2013-04-09 06:12:00,
2013-04-08 23:22:00,35.0,29.0,29.53,North,8,8.0,15.0,77,0.00,,,0.07,,2013-04-09 06:22:00,
2013-04-08 23:32:00,35.0,29.0,29.53,NNE,12,8.0,12.0,77,0.00,,,0.07,,2013-04-09 06:32:00,
2013-04-08 23:42:00,35.0,29.0,29.53,NNE,12,8.0,12.0,77,0.00,,,0.07,,2013-04-09 06:42:00,
2013-04-08 23:52:00,35.0,28.0,29.51,North,4,1.0,8.0,76,0.00,,,0.07,,2013-04-09 06:52:00,